DB0TGO-13 Weather Reports


Display with metric or nautical units.
time (UTC)temp
F
wind
direction
speed
MPH
gust
MPH
rain 1hr
in
rain 24hr
in
rain mn
in
humidity
%
barometer
mb
20260503184502 77 200 2.0 0.0 0.00 0.00 0.00 29 1004.1
20260503183002 77 240 3.0 0.0 0.00 0.00 0.00 29 1004.1
20260503181502 79 240 3.0 0.0 0.00 0.00 0.00 26 1004.1
20260503180002 79 230 5.0 0.0 0.00 0.00 0.00 26 1004.1
20260503174502 80 230 5.0 0.0 0.00 0.00 0.00 24 1004.2
20260503173002 80 230 6.0 0.0 0.00 0.00 0.00 24 1004.2
20260503171502 81 220 7.0 0.0 0.00 0.00 0.00 24 1004.3
20260503081502 68 180 4.0 0.0 0.00 0.00 0.00 43 1008.0
20260503071502 62 200 4.0 0.0 0.00 0.00 0.00 46 1008.0
20260503054502 55 230 1.0 0.0 0.00 0.00 0.00 56 1007.9
20260503053002 55 170 3.0 0.0 0.00 0.00 0.00 56 1007.9
20260503051502 53 170 2.0 0.0 0.00 0.00 0.00 61 1008.0
20260503050003 53 170 2.0 0.0 0.00 0.00 0.00 61 1008.0
20260503044503 51 170 2.0 0.0 0.00 0.00 0.00 63 1008.1
20260503043002 51 170 2.0 0.0 0.00 0.00 0.00 63 1008.1
20260503041502 52 170 2.0 0.0 0.00 0.00 0.00 61 1008.1
20260503040002 52 170 2.0 0.0 0.00 0.00 0.00 61 1008.1
20260503034502 52 140 1.0 0.0 0.00 0.00 0.00 61 1008.2
20260503033002 52 140 1.0 0.0 0.00 0.00 0.00 61 1008.2
20260503031502 53 140 1.0 0.0 0.00 0.00 0.00 60 1008.3
20260503030003 53 160 1.0 0.0 0.00 0.00 0.00 60 1008.3
20260502204502 67 170 2.0 0.0 0.00 0.00 0.00 40 1010.6
20260502203002 67 190 2.0 0.0 0.00 0.00 0.00 40 1010.6
20260502201502 68 190 2.0 0.0 0.00 0.00 0.00 37 1010.7
20260502200002 68 200 2.0 0.0 0.00 0.00 0.00 37 1010.7
20260502194502 71 200 2.0 0.0 0.00 0.00 0.00 33 1010.7
20260502193002 71 200 2.0 0.0 0.00 0.00 0.00 33 1010.7
20260502191503 73 200 3.0 0.0 0.00 0.00 0.00 30 1010.6
20260502190002 73 200 3.0 0.0 0.00 0.00 0.00 30 1010.6